KE5JJC Weather Reports


time (UTC)temp
C
wind
direction
speed
KPH
gust
KPH
rain 1hr
cm
rain 24hr
cm
rain mn
cm
humidity
%
barometer
mb
20260902141540 -17 0.0 0.0 0.00 0.00 0.00 1003.3
20260902140011 -17 0.0 0.0 0.00 0.00 0.00 1003.5
20260902134531 -17 0.0 0.0 0.00 0.00 0.00 1003.4
20260902133023 -17 0.0 0.0 0.00 0.00 0.00 1002.8
20260902131533 -17 0.0 0.0 0.00 0.00 0.00 1002.9
20260902130012 -17 0.0 0.0 0.00 0.00 0.00 1003.0
20260902124521 -17 0.0 0.0 0.00 0.00 0.00 1003.3
20260902123106 -17 0.0 0.0 0.00 0.00 0.00 1003.4
20260902120112 -17 0.0 0.0 0.00 0.00 0.00 1003.4
20260902120007 -17 0.0 0.0 0.00 0.00 0.00 1003.4
20260902114530 -17 0.0 0.0 0.00 0.00 0.00 1003.6
20260902113053 -17 0.0 0.0 0.00 0.00 0.00 1003.6
20260902111541 -17 0.0 0.0 0.00 0.00 0.00 1003.5
20260902110127 12 275 0.0 1.6 0.00 0.00 0.00 64 1002.9
20260902104525 13 266 0.0 0.0 0.00 0.00 0.00 64 1004.5
20260902103022 13 265 0.0 0.0 0.00 0.00 0.00 64 1004.0
20260902101514 13 262 0.0 0.0 0.00 0.00 0.00 62 1004.2
20260902100011 13 262 0.0 0.0 0.00 0.00 0.00 61 1004.2
20260902094506 13 262 0.0 0.0 0.00 0.00 0.00 60 1004.3
20260902093058 13 262 0.0 0.0 0.00 0.00 0.00 60 1004.4
20260902091554 14 262 0.0 0.0 0.00 0.00 0.00 58 1004.5
20260902090037 14 262 0.0 0.0 0.00 0.00 0.00 58 1004.6
20260902084539 14 262 0.0 0.0 0.00 0.00 0.00 58 1004.7
20260902083028 14 262 0.0 1.6 0.00 0.00 0.00 58 1004.6
20260902081531 14 261 0.0 0.0 0.00 0.00 0.00 58 1004.7
20260902080023 14 261 0.0 0.0 0.00 0.00 0.00 57 1004.9
20260902074518 15 261 0.0 0.0 0.00 0.00 0.00 56 1004.9
20260902073048 15 261 0.0 0.0 0.00 0.00 0.00 55 1004.7
20260902071550 15 261 0.0 1.6 0.00 0.00 0.00 54 1004.7
20260902070030 16 259 0.0 1.6 0.00 0.00 0.00 54 1004.8
20260902064521 16 48 0.0 0.0 0.00 0.00 0.00 52 1004.8
20260902063006 17 48 0.0 0.0 0.00 0.00 0.00 50 1004.6
20260902061508 17 210 0.0 8.0 0.00 0.00 0.00 50 1004.7
20260902060051 17 267 1.6 8.0 0.00 0.00 0.00 49 1004.7
20260902054550 17 149 0.0 8.0 0.00 0.00 0.00 48 1004.7
20260902053036 17 270 0.0 6.4 0.00 0.00 0.00 48 1004.7
20260902051543 17 86 0.0 6.4 0.00 0.00 0.00 48 1004.7
20260902050047 18 165 0.0 1.6 0.00 0.00 0.00 47 1004.6
20260902044514 17 252 0.0 3.2 0.00 0.00 0.00 47 1004.5
20260902043025 18 274 0.0 3.2 0.00 0.00 0.00 45 1004.6
20260902041600 18 269 0.0 3.2 0.00 0.00 0.00 45 1004.6
20260902041505 18 191 0.0 3.2 0.00 0.00 0.00 44 1004.6
20260902040050 19 257 0.0 8.0 0.00 0.00 0.00 43 1004.7
20260902034550 19 49 0.0 3.2 0.00 0.00 0.00 42 1004.5
20260902033045 20 137 0.0 6.4 0.00 0.00 0.00 41 1004.4
20260902031546 20 150 0.0 1.6 0.00 0.00 0.00 41 1004.2
20260902030019 20 78 0.0 6.4 0.00 0.00 0.00 40 1004.1
20260902024525 20 67 1.6 8.0 0.00 0.00 0.00 39 1004.1
20260902023013 20 252 0.0 3.2 0.00 0.00 0.00 39 1004.0
20260902021512 21 141 0.0 8.0 0.00 0.00 0.00 39 1004.1
20260902020008 21 214 0.0 3.2 0.00 0.00 0.00 38 1004.2
20260902014504 21 85 0.0 0.0 0.00 0.00 0.00 38 1004.2
20260902013048 21 85 0.0 0.0 0.00 0.00 0.00 37 1004.1
20260902011550 22 84 0.0 0.0 0.00 0.00 0.00 39 1004.2
20260902010022 22 78 0.0 8.0 0.00 0.00 0.00 36 1004.3
20260902004514 22 69 3.2 9.7 0.00 0.00 0.00 35 1004.2
20260902003014 22 80 0.0 12.9 0.00 0.00 0.00 34 1004.5
20260902001509 23 105 4.8 14.5 0.00 0.00 0.00 33 1004.7
20260902000104 23 205 4.8 11.3 0.00 0.00 0.00 35 1004.6
20260901234556 23 148 3.2 11.3 0.00 0.00 0.00 35 1004.4
20260901233045 23 157 0.0 0.0 0.00 0.00 0.00 37 1004.2
20260901231541 23 78 0.0 0.0 0.00 0.00 0.00 37 1004.1
20260901230019 23 79 0.0 0.0 0.00 0.00 0.00 38 1003.9
20260901224516 23 78 0.0 1.6 0.00 0.00 0.00 40 1003.9
20260901223006 23 77 0.0 1.6 0.00 0.00 0.00 40 1004.0
20260901221558 22 78 0.0 1.6 0.00 0.00 0.00 43 1004.0
20260901220111 22 80 0.0 0.0 0.00 0.00 0.00 40 1004.3
20260901214545 23 88 1.6 3.2 0.00 0.00 0.00 39 1004.2
20260901213042 23 73 0.0 3.2 0.00 0.00 0.00 42 1004.3
20260901211537 23 88 0.0 4.8 0.00 0.00 0.00 39 1004.3
20260901210014 23 63 0.0 3.2 0.00 0.00 0.00 41 1004.4
20260901204554 23 36 0.0 6.4 0.00 0.00 0.00 42 1004.6
20260901203052 22 71 0.0 3.2 0.00 0.00 0.00 42 1005.0
20260901201550 23 74 0.0 3.2 0.00 0.00 0.00 40 1004.9
20260901200028 23 74 3.2 8.0 0.00 0.00 0.00 40 1005.1
20260901194509 23 115 1.6 9.7 0.00 0.00 0.00 41 1005.4
20260901193054 22 86 3.2 9.7 0.00 0.00 0.00 44 1005.6
20260901191609 21 76 3.2 6.4 0.00 0.00 0.00 49 1006.0
20260901190034 18 12 0.0 3.2 0.00 0.00 0.00 55 1006.3
20260901184558 18 102 0.0 3.2 0.00 0.00 0.00 56 1006.6
20260901183018 18 77 0.0 6.4 0.00 0.00 0.00 55 1006.7
20260901181530 19 68 0.0 6.4 0.00 0.00 0.00 54 1006.8
20260901180010 18 49 3.2 9.7 0.00 0.00 0.00 55 1007.1
20260901174513 17 78 0.0 6.4 0.00 0.00 0.00 58 1006.9
20260901173054 17 103 1.6 6.4 0.00 0.00 0.00 60 1006.8
20260901171552 16 56 0.0 6.4 0.00 0.00 0.00 63 1007.0
20260901170032 15 71 0.0 4.8 0.00 0.00 0.00 65 1007.2
20260901164536 15 49 0.0 3.2 0.00 0.00 0.00 66 1007.6
20260901163014 14 70 0.0 3.2 0.00 0.00 0.00 69 1007.6
20260901161508 13 113 0.0 1.6 0.00 0.00 0.00 71 1007.8
20260901154544 12 65 0.0 3.2 0.00 0.00 0.00 75 1008.0
20260901153033 11 184 0.0 3.2 0.00 0.00 0.00 78 1008.2
20260901151532 11 42 0.0 0.0 0.00 0.00 0.00 79 1008.1
20260901150018 11 42 0.0 0.0 0.00 0.00 0.00 79 1008.5
20260901144509 11 11 0.0 0.0 0.00 0.00 0.00 78 1008.4
20260901143121 11 278 0.0 0.0 0.00 0.00 0.00 79 1008.4